Flag for New Zealand Weather past 2 weeks in Wellington, New Zealand

Now
59 °F

Cool.


Feels Like: 57 °F
Forecast: 51 / 62 °F
Wind: 9 mph from South

Location: Wellington Airport

Current Time: Oct 22, 2014 at 5:00:18 PM

Latest Report: Oct 22, 2014 at 4:30 PM


Visibility: N/A

Pressure: 30.09 "Hg

Humidity: 68%

Dew point: 48 °F

Location of WellingtonLocation

Historic Weather in Wellington — Graph

°F

Wellington temperature yesterday

Maximum temperature yesterday: 59 °F (at 4:30 PM)
Minimum temperature yesterday: 50 °F (at 2:30 AM)
Average temperature yesterday: 54 °F

Past Weeks' High & Low Weather Summary

 TemperatureHumidityPressure
High68 °F (Oct 15, 3:30 PM)94% (Oct 9, 3:00 AM)30.33 "Hg (Oct 9, 3:00 AM)
Low46 °F (Oct 9, 6:00 AM)39% (Oct 7, 3:30 PM)29.59 "Hg (Oct 8, 10:30 AM)
Average56 °F77%30.04 "Hg
* Reported Oct 7 3:00 PM — Oct 22 3:30 PM, Wellington, Weather by CustomWeather, © 2014

Note: Actual official high and low records may vary slightly from our data, if they occured in-between our weather recording intervals... More about our weather records

Advertising

Wellington weather history for previous 24 hours

 ConditionsComfort  
Time TempWeatherWind HumidityBarometerVisibility
3:30 PM
Oct 22
59 °FCool.8 mph68%30.09 "HgN/A
3:00 PM61 °FRefreshingly cool.9 mph59%30.12 "HgN/A
2:30 PM59 °FCool.10 mph63%30.12 "HgN/A
1:30 PM59 °FRefreshingly cool.10 mph59%30.12 "HgN/A
1:00 PM59 °FCool.9 mph63%30.15 "HgN/A
12:30 PM57 °FCool.8 mph67%30.15 "HgN/A
12:00 PM59 °FRefreshingly cool.8 mph59%30.15 "HgN/A
11:30 AM57 °FCool.8 mph63%30.18 "HgN/A
11:00 AM57 °FCool.7 mph63%30.18 "HgN/A
10:30 AM57 °FRefreshingly cool.7 mph59%30.21 "HgN/A
10:00 AM55 °FCool.6 mph63%30.21 "HgN/A
9:30 AM55 °FCool.6 mph63%30.21 "HgN/A
9:00 AM55 °FCool.5 mph63%30.21 "HgN/A
8:30 AM54 °FPassing clouds.3 mph67%30.21 "HgN/A
8:00 AM54 °FPartly sunny.1 mph72%30.21 "HgN/A
7:30 AM50 °FCool.2 mph76%30.21 "HgN/A
7:00 AM48 °FCool.2 mph71%30.21 "HgN/A
6:30 AM46 °FCool.3 mph76%30.18 "HgN/A
6:00 AM48 °FCool.3 mph71%30.18 "HgN/A
5:30 AM52 °FCool.5 mph62%30.18 "HgN/A
5:00 AM52 °FCool.3 mph58%30.18 "HgN/A
4:30 AM52 °FCool.5 mph58%30.21 "HgN/A
4:00 AM52 °FCool.6 mph58%30.21 "HgN/A
3:30 AM54 °FCool.9 mph58%30.21 "HgN/A
3:00 AM54 °FCool.12 mph67%30.21 "HgN/A
2:30 AM54 °FCool.13 mph67%30.18 "HgN/A
2:00 AM54 °FCool.12 mph72%30.18 "HgN/A
1:30 AM55 °FCool.14 mph67%30.21 "HgN/A
1:00 AM55 °FRefreshingly cool.14 mph55%30.21 "HgN/A
12:30 AM55 °FCool.12 mph63%30.18 "HgN/A
12:00 AM55 °FCool.12 mph72%30.18 "HgN/A
11:30 PM
Oct 21
55 °FPassing clouds.12 mph63%30.18 "HgN/A
11:00 PM54 °FPassing clouds.8 mph67%30.21 "HgN/A
10:30 PM54 °FPassing clouds.14 mph67%30.21 "HgN/A
10:00 PM54 °FPassing clouds.16 mph67%30.21 "HgN/A
9:30 PM54 °FPassing clouds.13 mph67%30.18 "HgN/A
9:00 PM54 °FCool.15 mph72%30.18 "HgN/A
8:30 PM54 °FCool.16 mph72%30.15 "HgN/A
8:00 PM54 °FCool.17 mph72%30.15 "HgN/A
7:30 PM55 °FCool.14 mph67%30.12 "HgN/A
7:00 PM55 °FPassing clouds.17 mph72%30.12 "HgN/A
6:30 PM57 °FPartly sunny.12 mph67%30.12 "HgN/A
6:00 PM59 °FPartly sunny.7 mph59%30.09 "HgN/A
5:30 PM59 °FRefreshingly cool.6 mph59%30.09 "HgN/A
5:00 PM57 °FCool.12 mph67%30.09 "HgN/A
Weather by CustomWeather, © 2014

See weather overviewHow to use our weather pages